Location: Unspecified
(0.0000°N, 0.0000°E)
Time: 22:37:19
(UTC+00:00)

N. Korean satellite - Pass Details

Date: 16 November 2017
Orbit: 460 x 514 km, 97.2° (Epoch: 20 November)

Event Time Altitude Azimuth Distance (km) Brightness Sun altitude
Rises 18:05:12 0° 157° (SSE) 2,485 10.1 -4.8°
Reaches altitude 10° 18:07:20 10° 149° (SSE) 1,605 9.1 -5.3°
Maximum altitude 18:10:34 38° 79° (E) 714 6.9 -6.1°
Drops below altitude 10° 18:13:46 10° 10° (N) 1,598 8.9 -6.8°
Sets 18:15:53 0° 2° (N) 2,472 9.9 -7.3°
